Probability
0 0 1 2 3 3 2 1 0 0 0 0 0 0 0 0 0 0 0 1 3 7 9 10 12 12 11 12 14 15 13 13 12 11 9 7 6 6 7 6 4 2 0 0 1 2 2 1 0
0 0 1 3 3 2 1 0 0 0 0 0 0 0 0 0 0 0 0 1 5 8 9 10 13 14 13 13 14 15 14 12 11 10 9 7 6 6 7 7 6 3 1 1 1 1 1 1 1
0 0 1 2 2 1 0 0 0 0 0 0 0 0 0 0 0 0 0 2 6 8 8 10 14 17 16 15 14 14 13 12 10 10 9 7 6 6 6 7 7 5 4 3 3 2 2 2 2
0 0 1 1 1 0 0 0 0 0 0 0 0 0 0 0 0 1 2 4 6 7 8 12 17 20 19 16 14 14 13 12 10 9 9 7 6 6 6 6 6 7 6 5 3 3 3 3 3
0 0 0 0 0 0 0 0 0 0 0 0 0 0 1 1 1 3 5 8 9 9 10 16 21 22 22 19 16 15 14 12 11 9 8 7 6 6 6 6 6 6 7 6 3 2 2 2 2
0 0 0 0 0 0 0 0 0 0 0 0 0 1 2 3 3 5 7 10 11 12 15 20 23 25 24 21 18 16 15 14 12 10 8 7 7 7 6 6 6 6 7 6 4 2 1 1 1
0 0 0 0 0 0 0 0 0 0 0 0 0 1 2 5 6 7 9 12 13 14 18 23 25 25 23 20 17 15 16 15 13 11 9 8 8 7 6 6 6 6 6 6 5 3 1 0 0
0 0 0 0 0 0 0 0 0 0 0 0 0 1 2 6 9 11 12 15 15 16 20 23 24 23 21 17 12 10 13 15 14 11 10 9 8 7 6 6 6 6 6 6 5 3 1 1 0
0 0 0 0 0 0 0 0 0 0 1 1 1 1 3 7 11 14 16 15 14 16 18 20 21 22 21 16 9 6 8 12 13 11 9 7 6 5 6 6 6 6 6 6 6 3 2 1 1
0 0 0 0 0 0 0 0 0 1 2 2 2 3 5 9 13 17 16 13 10 12 15 16 17 20 21 17 9 5 5 8 10 10 8 6 4 4 4 4 5 6 6 6 6 4 2 0 0
0 0 0 0 0 0 0 0 0 1 2 3 3 4 6 10 14 17 16 13 10 10 13 14 15 17 19 16 9 4 4 6 7 7 6 5 4 4 3 3 4 5 5 4 4 3 1 0 0
0 0 0 0 0 0 0 0 0 0 1 2 3 4 6 9 12 15 16 13 11 12 14 16 17 17 15 13 8 5 5 5 5 5 4 4 5 5 4 3 3 4 4 3 2 1 0 0 0
0 0 0 0 0 0 0 0 0 0 1 2 3 4 6 8 10 12 14 13 11 13 16 18 19 17 13 9 7 6 5 4 3 3 3 3 4 4 3 3 3 3 4 3 2 0 0 0 0
0 0 0 0 0 0 0 0 0 1 2 3 4 5 6 7 9 10 11 10 10 13 16 18 18 16 11 8 8 8 6 4 3 3 2 3 3 3 2 2 3 3 3 3 2 1 0 0 0
0 0 0 0 0 0 0 0 0 1 2 3 4 5 5 5 7 8 8 8 10 12 15 16 15 12 8 7 8 9 8 5 3 2 1 2 3 2 1 1 3 3 3 2 2 1 0 0 0
0 0 0 0 0 0 0 0 0 1 2 3 3 4 3 3 4 6 6 6 9 12 14 15 14 10 5 4 6 8 8 6 4 2 1 1 2 2 1 1 2 3 2 1 2 2 1 0 0
0 0 0 0 0 0 0 0 0 0 1 2 2 3 3 3 3 4 4 5 7 11 13 15 14 9 5 3 4 6 7 6 5 2 0 1 2 2 1 0 1 3 2 1 1 2 1 0 0
0 0 0 0 0 0 0 0 0 0 0 1 1 1 2 2 2 3 4 4 5 8 12 14 12 8 5 3 3 4 4 5 4 2 1 0 1 2 1 0 1 2 2 1 1 1 1 0 0
0 0 0 0 0 0 0 0 0 0 0 0 0 0 1 1 1 2 3 3 4 7 10 12 11 8 5 4 4 3 3 4 4 3 1 0 0 1 1 0 1 2 1 0 0 1 1 1 0
0 0 0 0 0 0 0 0 0 0 0 0 0 0 0 1 2 2 3 3 3 5 8 9 9 8 5 5 5 4 3 3 4 4 3 1 0 0 0 0 1 2 1 0 0 0 1 1 1
0 0 0 0 0 0 0 0 0 0 0 0 0 0 0 1 2 2 2 2 2 3 5 6 6 5 4 4 5 3 2 2 3 4 4 1 0 0 0 0 1 2 1 0 0 0 1 1 1
0 0 0 0 0 0 0 0 0 0 0 0 0 0 0 1 1 1 1 1 1 1 3 4 3 2 2 3 4 3 3 2 3 4 4 1 0 0 0 0 1 1 1 0 0 0 0 1 2
0 0 0 0 0 0 0 0 0 0 0 0 0 0 0 0 1 1 1 0 0 1 3 4 3 1 1 2 4 3 2 2 2 3 3 2 1 0 0 0 0 0 0 0 0 0 0 1 2
0 0 0 0 0 0 0 0 0 0 0 0 0 0 0 0 1 1 1 1 1 1 3 5 3 1 0 1 2 2 1 1 1 1 2 2 1 0 0 0 0 0 0 0 0 0 0 0 1
0 0 0 0 0 0 0 0 0 0 0 0 0 0 0 0 0 1 1 2 1 1 3 4 4 1 0 0 1 1 0 0 0 0 1 1 0 0 0 0 0 0 0 0 0 0 0 0 0
0 0 0 0 0 0 0 0 0 0 0 0 0 0 0 0 1 2 2 1 1 1 2 3 3 1 0 0 0 1 1 0 0 0 0 0 0 0 0 0 0 0 0 0 0 0 0 0 0
0 0 0 0 0 0 0 0 0 0 0 0 0 0 0 1 2 3 3 1 0 0 1 2 2 1 0 0 0 1 2 1 0 0 0 0 0 0 0 0 0 0 0 0 1 1 0 0 0
0 0 0 0 0 0 0 0 0 0 0 0 0 0 0 1 2 3 3 2 0 0 1 2 2 1 0 0 1 2 3 2 1 0 0 0 0 0 0 0 0 0 0 0 1 2 1 0 0
0 0 0 0 0 0 0 0 0 0 0 0 0 0 0 0 1 2 2 1 0 0 1 3 3 1 0 1 1 3 4 4 3 1 0 0 0 0 0 0 0 0 0 0 1 1 1 0 0
0 0 0 0 0 0 0 0 0 0 0 0 0 0 0 0 0 1 1 0 0 0 1 2 3 2 1 2 2 3 5 5 4 1 0 0 0 0 0 0 0 0 0 0 0 1 0 0 0
Wind_Speed
9 5 2 4 6 3 4 5 3 2 2 1 1 3 5 5 5 3 1 3 4 6 6 9 12 11 11 11 11 11 11 11 12 12 12 12 12 12 11 11 11 10 10 10 10 11 11 11 11
3 3 4 5 4 3 5 4 5 5 2 1 1 1 1 1 0 1 1 1 4 6 5 7 12 11 11 11 11 11 11 11 11 11 11 11 11 11 11 10 10 10 10 9 10 10 11 10 10
3 3 4 4 4 7 5 3 5 2 1 1 1 1 1 1 0 2 2 3 4 4 4 7 11 11 11 11 11 11 11 11 11 11 11 11 11 11 10 10 10 10 9 9 10 10 10 10 10
3 4 5 3 6 6 5 3 2 1 1 1 2 1 1 1 1 2 2 4 5 4 3 5 9 11 11 11 10 11 11 11 11 11 11 10 10 10 10 9 9 9 9 9 9 9 9 9 9
4 4 3 2 6 4 3 3 2 1 1 0 2 1 2 1 1 1 3 5 5 4 3 4 8 9 10 10 10 10 10 10 10 11 11 10 10 10 9 9 9 9 9 9 8 8 9 9 9
4 4 3 6 7 4 3 2 0 1 1 0 2 1 3 1 2 1 3 4 4 4 3 3 7 7 9 9 9 9 10 10 10 10 11 10 10 9 9 9 8 8 8 8 8 8 8 8 8
4 4 4 5 4 4 3 1 2 2 2 3 3 2 3 1 1 0 2 3 3 3 3 3 4 5 7 8 8 9 9 9 9 9 9 10 9 9 9 9 8 8 8 8 8 8 7 7 7
3 4 3 4 5 5 2 1 1 3 4 2 3 3 3 3 0 2 3 3 3 2 2 2 3 3 4 5 7 7 8 8 8 8 8 8 8 9 8 7 8 8 7 7 7 7 7 6 6
3 3 5 6 6 4 1 0 2 1 1 1 1 2 2 1 3 3 2 1 2 2 2 2 3 3 3 4 5 5 6 7 8 7 8 6 4 4 5 6 6 7 7 6 6 6 7 6 6
3 4 7 4 4 2 1 2 2 1 1 2 2 2 1 3 4 5 4 4 4 4 4 3 3 4 4 3 3 3 2 4 4 4 5 3 3 3 4 6 6 6 6 6 6 6 6 5 3
2 5 3 2 1 1 1 2 2 2 4 5 4 3 2 3 4 5 6 6 6 5 4 4 4 4 4 3 3 2 2 2 3 4 4 4 3 2 2 2 3 3 4 2 3 3 2 2 2
1 3 2 2 1 1 3 2 3 6 7 4 4 3 4 5 6 7 7 6 4 4 5 4 4 4 4 4 3 3 3 2 2 3 5 4 3 2 2 2 2 2 1 2 2 2 2 3 2
2 3 3 3 3 4 4 5 5 8 8 5 3 3 6 7 7 7 6 5 5 5 5 5 5 5 5 4 3 3 3 3 3 3 3 4 3 3 3 2 2 2 2 2 2 2 2 2 2
2 3 4 4 4 3 4 7 5 9 5 4 4 5 6 7 7 5 5 6 7 7 6 5 6 6 6 5 4 4 3 3 3 3 3 4 3 4 4 3 2 2 2 2 2 2 2 1 1
1 3 5 3 3 3 2 8 8 7 3 4 5 6 6 6 6 7 7 7 7 7 6 6 7 7 7 6 5 4 4 4 4 3 3 4 4 4 4 3 3 2 2 2 2 2 2 1 1
1 1 3 3 2 2 3 11 6 3 3 6 6 6 6 7 7 8 7 7 7 6 6 7 6 7 7 6 5 4 4 4 4 4 4 4 5 5 4 4 3 3 2 2 3 2 2 1 1
1 2 4 5 2 1 4 10 6 3 4 6 6 6 7 7 8 7 7 7 7 7 7 7 6 8 7 6 5 4 4 4 3 3 4 5 5 5 5 4 3 4 3 2 2 2 2 2 1
3 3 4 5 3 2 6 12 11 6 6 7 7 7 7 8 10 8 7 7 7 6 6 7 6 7 7 5 4 3 3 3 3 4 4 5 5 5 5 4 4 4 3 2 2 2 2 2 2
3 4 8 8 5 5 9 14 14 9 7 8 8 8 8 10 8 6 6 5 5 5 5 6 7 7 6 5 5 5 4 4 3 4 5 6 6 6 5 4 4 4 4 4 4 2 3 2 1
4 6 8 8 5 5 9 14 12 8 8 8 9 9 9 9 7 6 5 4 5 6 6 6 7 7 7 6 5 4 3 3 3 3 4 5 6 6 5 6 5 5 4 4 4 3 2 2 2
6 7 7 7 7 4 7 11 8 5 6 7 8 8 8 9 9 7 6 6 6 6 6 6 7 7 7 6 4 3 2 2 2 4 4 5 6 6 6 6 5 5 5 5 5 5 5 3 2
6 5 6 6 5 5 1 8 9 5 6 7 8 7 8 8 8 7 6 6 6 7 5 5 5 6 6 7 6 7 6 5 5 4 4 4 5 6 6 6 6 6 5 5 5 5 4 4 3
5 2 4 5 4 5 3 6 10 3 6 8 8 8 8 7 7 7 6 7 6 5 5 5 5 5 5 6 8 7 6 4 3 3 4 4 4 5 5 6 5 5 5 5 5 5 4 4 4
2 1 2 1 0 5 5 5 10 5 7 6 6 6 6 6 6 6 6 5 4 4 4 4 4 5 5 6 6 7 7 5 4 4 5 4 3 4 5 5 5 5 5 5 5 5 5 4 4
2 2 3 4 2 7 2 5 11 7 6 6 7 7 6 5 5 4 4 4 4 4 4 4 5 5 5 6 6 7 7 7 7 6 6 5 3 3 5 4 5 5 5 5 5 5 4 4 5
3 4 4 4 5 5 3 8 9 5 4 3 4 5 5 4 4 4 4 3 4 4 4 4 5 5 5 6 6 5 5 4 4 5 4 5 4 4 4 5 4 5 5 5 4 4 4 4 4
3 3 3 2 2 4 7 8 10 4 5 4 4 4 5 5 5 5 4 3 3 3 3 4 4 4 5 5 5 5 5 5 4 4 4 3 3 3 4 4 4 4 5 5 5 4 4 4 4
2 2 2 2 2 5 6 6 5 6 6 6 5 5 5 5 5 5 4 3 2 2 1 1 2 3 4 4 4 4 5 5 4 4 4 4 3 3 4 4 4 4 4 4 4 4 4 5 4
2 2 2 2 3 3 5 7 3 5 4 4 5 5 5 5 5 5 4 4 2 1 1 0 1 1 2 3 3 3 4 4 4 4 4 4 4 4 4 4 4 4 4 4 4 4 4 5 4
3 4 4 3 4 3 3 8 3 3 2 3 4 5 5 6 6 5 5 5 3 2 1 0 1 1 2 2 3 3 3 4 4 4 4 4 4 3 4 4 4 4 4 4 5 5 5 5 5
Wind_Direction
338 346 42 57 61 60 230 235 215 236 234 237 185 166 171 168 171 201 327 127 131 151 164 165 156 154 151 148 143 137 135 132 129 127 124 122 120 117 116 114 110 106 103 100 99 98 96 94 92
337 356 50 63 108 193 247 231 218 218 214 99 51 88 123 214 314 102 113 185 138 148 156 164 157 152 152 150 146 142 138 137 134 131 128 126 123 120 118 116 112 108 104 99 100 100 97 95 95
357 43 83 89 157 196 218 224 220 249 262 113 48 40 176 238 241 190 230 167 131 134 148 168 158 154 152 152 151 147 144 142 139 136 133 131 129 127 124 120 116 111 106 102 102 102 100 96 96
60 49 60 102 217 218 208 228 201 241 345 72 125 320 283 337 197 223 181 149 133 133 143 168 156 158 156 153 152 152 150 146 145 142 140 137 135 132 128 125 120 115 110 108 106 103 100 99 97
62 83 97 226 238 244 242 256 216 181 220 201 137 229 278 340 25 108 141 144 140 137 141 160 156 161 158 157 155 153 153 152 149 149 146 143 140 136 130 127 124 120 116 113 111 107 103 102 101
66 81 142 223 238 255 264 268 227 265 265 209 151 216 254 6 42 100 136 144 144 144 144 155 159 156 158 157 156 154 154 154 155 154 152 148 146 142 137 133 128 126 123 118 114 109 105 104 105
122 128 193 213 235 250 255 240 172 227 244 232 190 186 281 317 323 87 120 135 135 140 140 154 159 157 157 160 162 158 156 154 155 155 156 152 149 146 144 138 132 128 124 121 116 110 106 102 104
129 128 186 212 216 241 260 259 203 201 240 259 159 170 252 267 311 91 87 112 127 134 143 154 151 151 151 157 161 162 160 157 155 151 149 152 150 150 144 137 135 130 125 124 120 112 108 101 101
102 129 209 207 201 228 246 281 300 283 188 274 232 206 266 138 127 112 96 99 154 168 174 166 155 149 146 150 155 153 161 159 156 152 148 143 146 145 140 135 135 134 129 124 120 113 101 94 97
112 192 219 204 191 198 230 228 263 341 298 262 278 304 16 125 154 165 182 198 198 202 199 181 166 155 148 152 142 142 147 152 146 140 141 135 130 136 131 132 133 133 126 123 117 111 98 84 78
163 211 225 240 244 219 241 258 247 204 247 224 233 252 184 174 195 204 207 208 211 207 202 192 177 165 156 151 146 138 133 136 139 143 144 136 127 125 120 123 129 121 114 107 101 91 84 84 80
205 255 245 265 283 258 242 262 265 224 233 238 234 210 192 201 212 217 221 220 215 210 213 197 180 171 167 158 157 152 148 150 153 159 153 145 142 140 139 139 137 129 124 115 99 101 98 100 97
229 273 275 276 275 257 255 248 255 251 254 264 253 214 216 220 231 235 229 223 215 216 216 209 186 176 173 165 167 163 163 167 168 163 166 158 157 158 153 155 153 147 140 137 131 118 111 111 108
233 263 273 275 265 258 249 262 247 255 252 256 243 238 234 228 233 243 242 232 219 218 215 212 198 183 176 177 176 174 171 168 168 172 175 169 164 164 162 163 165 168 162 155 150 147 135 134 128
267 289 294 260 241 241 250 272 238 248 242 252 255 252 250 246 241 238 238 238 231 221 213 207 207 185 179 179 181 178 173 170 177 180 178 178 173 170 167 168 173 176 163 151 139 131 123 124 113
340 301 281 277 224 224 185 260 258 249 225 250 257 258 258 256 245 245 245 247 239 224 213 210 211 191 187 184 180 179 177 177 180 180 181 185 183 176 170 173 182 174 158 156 154 150 142 144 141
26 244 258 289 246 224 214 258 269 260 240 253 260 259 261 268 265 256 244 244 237 223 213 209 210 194 188 183 178 177 178 185 183 182 186 189 188 183 176 180 183 170 160 163 170 160 157 165 172
225 233 254 262 278 277 259 266 279 273 255 254 261 262 263 262 262 263 249 243 238 224 215 211 206 197 181 174 167 168 178 190 189 191 191 188 189 186 180 180 181 173 166 169 168 169 161 167 173
204 239 262 269 285 282 266 275 279 274 262 261 262 262 260 261 264 263 253 244 237 221 215 212 205 195 178 176 179 181 191 194 198 203 191 191 189 186 182 182 178 178 180 183 174 168 165 172 150
234 256 268 283 282 278 279 277 275 262 251 248 251 257 259 264 273 266 258 244 236 224 216 216 211 200 189 187 182 181 178 189 198 198 192 193 190 188 189 184 184 184 180 181 181 173 166 180 174
239 237 252 273 308 297 295 287 269 262 247 256 255 253 254 250 255 259 254 246 235 229 221 218 217 208 194 181 163 149 140 145 180 194 198 196 193 192 190 189 188 189 187 192 191 185 183 185 200
254 232 245 270 295 292 301 289 282 270 271 264 264 263 260 260 255 254 249 249 235 232 228 221 219 210 193 180 177 177 186 197 202 195 195 192 194 193 188 187 189 190 191 195 198 194 196 182 192
231 249 250 263 260 283 255 253 280 274 273 275 271 266 267 267 258 255 249 246 238 229 223 217 213 208 192 184 185 187 197 201 194 184 183 191 196 196 190 186 188 192 195 195 195 194 194 197 196
209 359 315 299 201 268 240 221 276 245 244 268 278 281 281 278 270 259 255 249 242 236 225 213 204 204 190 185 187 192 195 190 186 190 189 193 197 196 191 187 189 191 192 195 198 197 196 199 198
110 90 359 344 315 255 236 229 255 251 247 247 272 288 290 290 285 276 270 252 242 239 231 220 202 201 193 187 192 196 197 194 196 195 191 188 195 202 196 190 189 189 192 196 195 194 196 194 194
191 169 186 228 244 283 284 245 260 274 286 279 282 291 299 302 300 293 277 263 251 245 232 224 207 200 193 192 195 192 194 197 200 197 192 194 200 202 190 188 190 190 185 193 193 194 201 194 196
168 201 199 182 259 278 268 279 295 303 327 333 328 325 317 313 310 298 291 283 271 259 242 223 206 200 197 197 192 190 193 195 196 188 186 190 192 188 179 184 189 193 186 187 188 196 199 192 199
179 164 129 160 226 267 283 274 275 307 315 327 328 321 320 327 324 319 317 316 309 282 272 246 199 193 192 185 185 189 192 191 186 178 182 186 187 180 178 184 188 192 187 182 180 190 192 192 199
172 176 181 188 195 209 275 275 264 284 296 313 316 323 332 333 325 322 328 330 319 323 339 83 197 178 181 179 177 181 189 186 182 184 191 188 187 182 185 185 186 188 185 182 179 190 191 192 198
198 200 181 200 238 213 237 272 306 300 325 345 330 330 343 342 340 338 340 345 345 338 346 5 242 204 197 187 177 182 186 183 188 192 195 187 189 187 193 185 184 188 186 188 187 190 194 194 199